Flag for Germany Weather past 2 weeks in Cottbus, Brandenburg, Germany

Now
67 °F

Overcast.


Feels Like: 67 °F
Forecast: 51 / 61 °F
Wind: 2 mph from East

Location: Cottbus

Current Time: May 25, 2015 at 7:25:54 PM

Latest Report: May 25, 2015 at 7:00 PM


Visibility: 19 mi

Pressure: 29.82 "Hg

Humidity: 59%

Dew point: 52 °F

Location of CottbusLocation

Historic Weather in Cottbus — Graph

°F

Cottbus temperature yesterday

Maximum temperature yesterday: 70 °F (at 4:00 PM)
Minimum temperature yesterday: 49 °F (at 6:00 AM)
Average temperature yesterday: 59 °F

Past Weeks' High & Low Weather Summary

 TemperatureHumidityPressure
High78 °F (May 12, 3:00 PM)100% (May 11, 1:00 AM)30.40 "Hg (May 11, 1:00 AM)
Low34 °F (May 15, 5:00 AM)23% (May 11, 5:00 PM)29.63 "Hg (May 19, 3:00 AM)
Average56 °F63%30.05 "Hg
* Reported May 10 6:00 PM — May 25 6:00 PM, Cottbus, Weather by CustomWeather, © 2015

Note: Actual official high and low records may vary slightly from our data, if they occured in-between our weather recording intervals... More about our weather records

Advertising

Cottbus weather history for previous 24 hours

 ConditionsComfort  
Time TempWeatherWind HumidityBarometerVisibility
6:00 PM
Mon, May 25
66 °FOvercast.2 mph64%29.83 "Hg19 mi
5:00 PM67 °FOvercast.3 mph56%29.84 "Hg22 mi
4:00 PM67 °FOvercast.3 mph70%29.85 "Hg16 mi
3:00 PM63 °FOvercast.3 mph76%29.86 "Hg18 mi
2:00 PM63 °FOvercast.3 mph85%29.88 "Hg7 mi
1:00 PM60 °FLight rain. Low clouds.3 mph89%29.90 "Hg7 mi
12:00 PM69 °FPartly sunny.2 mph51%29.88 "Hg18 mi
11:00 AM70 °FSunny.3 mph50%29.90 "Hg15 mi
10:00 AM67 °FPassing clouds.2 mph55%29.92 "Hg17 mi
9:00 AM62 °FOvercast.1 mph68%29.93 "Hg19 mi
8:00 AM59 °FOvercast.2 mph68%29.95 "Hg22 mi
7:00 AM56 °FPartly sunny.1 mph72%29.95 "Hg17 mi
6:00 AM46 °FSunny.1 mph94%29.97 "Hg15 mi
5:00 AM44 °FPassing clouds.1 mph97%29.98 "Hg16 mi
4:00 AM44 °FClear.1 mph94%29.98 "Hg16 mi
3:00 AM44 °FClear.1 mph92%29.99 "Hg17 mi
2:00 AM45 °FPassing clouds.1 mph90%30.00 "Hg18 mi
1:00 AM46 °FClear.1 mph85%30.01 "Hg19 mi
12:00 AM48 °FClear.2 mph77%30.03 "Hg22 mi
11:00 PM
Sun, May 24
52 °FClear.2 mph63%30.03 "Hg19 mi
10:00 PM54 °FClear.1 mph63%30.03 "Hg15 mi
9:00 PM61 °FSunny.1 mph40%30.02 "Hg37 mi
8:00 PM67 °FSunny.3 mph29%30.02 "Hg34 mi
7:00 PM70 °FSunny.2 mph28%30.02 "Hg34 mi
Weather by CustomWeather, © 2015

See weather overviewHow to use our weather pages